Weather past 2 weeks in Saipan, Northern Mariana Islands

Now
78 °F

Mostly cloudy.


Feels Like: 80 °F
Forecast: 73 / 81 °F
Wind: 9 mph from East

Location: Saipan International Airport

Current Time: Apr 19, 2015 at 3:21:01 AM

Latest Report: Apr 19, 2015 at 2:54 AM


Visibility: 10 mi

Pressure: 29.98 "Hg

Humidity: 71%

Dew point: 68 °F

Location of SaipanLocation

Historic Weather in Saipan — Graph

°F

Saipan temperature yesterday

Maximum temperature yesterday: 86 °F (at 11:54 AM)
Minimum temperature yesterday: 76 °F (at 2:54 AM)
Average temperature yesterday: 81 °F

Past Weeks' High & Low Weather Summary

 TemperatureHumidityPressure
High87 °F (Apr 14, 11:54 AM)100% (Apr 6, 5:54 AM)30.11 "Hg (Apr 6, 5:54 AM)
Low73 °F (Apr 6, 5:54 AM)63% (Apr 14, 11:54 AM)29.77 "Hg (Apr 6, 5:03 PM)
Average80 °F79%29.96 "Hg
* Reported Apr 4 1:54 AM — Apr 19 1:54 AM, Saipan, Weather by CustomWeather, © 2015

Note: Actual official high and low records may vary slightly from our data, if they occured in-between our weather recording intervals... More about our weather records

Advertising

Saipan weather history for previous 24 hours

 ConditionsComfort  
Time TempWeatherWind HumidityBarometerVisibility
1:54 AM
Sun, Apr 19
78 °FPassing clouds.10 mph74%29.98 "Hg10 mi
12:54 AM79 °FPartly cloudy.13 mph72%30.00 "Hg10 mi
12:29 AM79 °FMostly cloudy.13 mph74%29.94 "Hg10 mi
11:54 PM
Sat, Apr 18
79 °FPassing clouds.15 mph74%30.00 "Hg10 mi
10:54 PM79 °FPassing clouds.14 mph77%30.01 "Hg10 mi
9:54 PM79 °FPassing clouds.17 mph77%30.01 "Hg10 mi
8:54 PM79 °FOvercast.16 mph77%30.00 "Hg10 mi
7:54 PM79 °FPassing clouds.17 mph79%29.98 "Hg10 mi
6:54 PM80 °FMostly cloudy.16 mph76%29.96 "Hg10 mi
5:54 PM81 °FScattered clouds.15 mph77%29.95 "Hg10 mi
4:54 PM82 °FPassing clouds.17 mph74%29.94 "Hg10 mi
3:54 PM84 °FBroken clouds.17 mph67%29.94 "Hg10 mi
2:54 PM85 °FScattered clouds.16 mph68%29.95 "Hg10 mi
1:54 PM86 °FScattered clouds.16 mph63%29.96 "Hg10 mi
12:54 PM86 °FPassing clouds.17 mph63%29.98 "Hg10 mi
11:54 AM86 °FPassing clouds.15 mph63%30.01 "Hg10 mi
10:54 AM85 °FPassing clouds.18 mph65%30.02 "Hg10 mi
9:54 AM85 °FSunny.18 mph63%30.03 "Hg10 mi
8:54 AM84 °FPassing clouds.20 mph67%30.03 "Hg10 mi
7:54 AM82 °FPassing clouds.18 mph72%30.01 "Hg10 mi
6:54 AM80 °FScattered clouds.14 mph76%30.00 "Hg10 mi
5:54 AM79 °FPassing clouds.12 mph79%29.98 "Hg10 mi
4:54 AM79 °FPassing clouds.6 mph79%29.97 "Hg10 mi
3:54 AM78 °FPartly cloudy.7 mph84%29.96 "Hg10 mi
Weather by CustomWeather, © 2015

See weather overviewHow to use our weather pages